Regional Weather Roundup
Issued by NWS

Home | Current Version | Previous Version | Text Only | Print | Product List | Glossary On
Versions: 1 2 3 4 5 6 7 8 9 10 11 12 13 14 15 16 17 18 19 20 21 22 23 24 25 26 27 28 29 30 31 32 33 34 35 36 37 38 39 40 41 42 43 44 45 46 47 48 49 50
000
ASUS45 KSLC 240610
RWRUT

UTAH REGIONAL WEATHER ROUNDUP
NATIONAL WEATHER SERVICE SALT LAKE CITY UT
1100 PM MST THU NOV 23 2017

UTZ001>011-023>025-240700-

NORTHERN UTAH

CITY           SKY/WX    TMP DP  RH WIND       PRES   REMARKS
BRIGHAM CITY   CLOUDY    48  43  81 S5        30.02F
HILL AFB       CLOUDY    52  41  65 SW6       30.04F
LOGAN          MOCLDY    50  42  74 SE7       30.01F
OGDEN          CLOUDY    50  43  77 S7        30.03F
SALT LAKE CITY CLOUDY    52  46  80 NW7       30.04F
TOOELE VALLEY  CLOUDY    45  43  93 S3        30.06S
WENDOVER       MOCLDY    42  35  76 CALM      30.05F
HEBER CITY       N/A     43  34  70 CALM      30.10S
WEST JORDAN    CLOUDY    52  42  69 NW6       30.06S

$$

UTZ011>015-024>027-240700-

CENTRAL/NORTHEAST UTAH

CITY           SKY/WX    TMP DP  RH WIND       PRES   REMARKS
PROVO AIRPORT  CLOUDY    47  42  83 CALM      30.08F
MOAB/CANYONLAN MOCLDY    38  27  64 CALM      30.13F
DELTA          CLOUDY    45  32  61 SW6       30.10S
PRICE          MOCLDY    39  31  72 NE6       30.17F WCI  35
ROOSEVELT      CLOUDY    32  28  86 SW6       30.13F WCI  26
VERNAL         CLOUDY    37  30  75 CALM      30.11F

$$

UTZ013>016-019>022-027-240700-

SOUTHERN UTAH

CITY           SKY/WX    TMP DP  RH WIND       PRES   REMARKS
BRYCE CANYON   MOCLDY    33  22  63 W8        30.28F WCI  26
CEDAR CITY     MOCLDY    52  18  26 SE8       30.18R
MILFORD        CLOUDY    53  31  42 S8        30.12S
ST GEORGE      CLOUDY    49  30  48 S3        30.11R
HANKSVILLE     MOCLDY    34  21  60 E3        30.17S
BLANDING         N/A     39  29  65 N3        30.27S

$$

REGIONAL REPORTS     COLORADO/ARIZONA

CITY           SKY/WX    TMP DP  RH WIND       PRES   REMARKS
CRAIG, CO      CLOUDY    29  28  96 CALM      30.14F
GRAND JUNCTION CLOUDY    42  33  70 E6        30.16S
RIFLE, CO      CLOUDY    37  33  85 CALM      30.18F
MONTROSE, CO   CLOUDY    37  29  72 SE7       30.21F WCI  32
CORTEZ, CO     CLOUDY    32  26  78 E8        30.22F WCI  25
COLORADO CITY    N/A     37  28  70 SE3       30.21R
PAGE, AZ       PTCLDY    50  33  52 N3        30.14F
GRAND CANYON   MOCLDY    28  13  53 CALM      30.26S
KINGMAN, AZ    CLEAR     48  26  42 CALM      30.09S
FLAGSTAFF, AZ  PTCLDY    30  23  75 CALM      30.28F

$$

REGIONAL REPORTS    NEVADA/IDAHO/WYOMING

CITY           SKY/WX    TMP DP  RH WIND       PRES   REMARKS
LAS VEGAS, NV  PTCLDY    61  36  39 W6        30.04R
ELY, NY        CLOUDY    47  26  44 S10       30.17F
ELKO, NV       PTCLDY    48  35  60 CALM      30.07S
POCATELLO, ID  MOCLDY    51  38  60 SW7       29.95F
BURLEY, ID     CLOUDY    58  38  47 SW16      29.96R
FORT BRIDGER,    N/A     46  32  57 SW14      30.12F
EVANSTON, WY   CLOUDY    44  32  62 SW13      30.12F
ROCK SPRINGS,  CLOUDY    47  35  63 W12       30.11F
KEMMERER, WY   CLOUDY    41  34  75 W7        30.10F

$$



USA.gov is the U.S. government's official web portal to all federal, state and local government web resources and services.